• Join FlightAware (Why Join?)
  • Login
  • US Flag 
10:50PM EST


 

Airport Tracker/Info


-or-


 

Live Flight TrackerFlight Track Log ✈ N500CD ✈ 02-Oct-2013 ✈ KNEW - KGNV

Flight Track Log - Related Links

Times and Time Zones

All times are in EDT time to prevent confusion due to time zone crossing. See the N500CD flight status page for this flight to view local times or setup timezone preferences in your user account.

Time Position Orientation Groundspeed Altitude Reporting Facility
EDT Latitude Longitude Course Direction KTS MPH feet Rate Location/Type
12:24PM 30.0569 -90.0297 30° Northeast 157 181 500  Level Houston Center
12:25PM 30.1081 -89.9961 30° Northeast 184 212 3,000 1,862 Climbing Houston Center
12:26PM 30.1056 -89.9711 97° East 177 204 4,100 2,093 Climbing Houston Center
12:26PM 30.1047 -89.9603 95° East 172 198 4,500 1,839 Climbing Houston Center
12:27PM 30.1014 -89.9172 95° East 170 196 6,000 1,791 Climbing Houston Center
12:27PM 30.1028 -89.9028 84° East 168 193 6,500 1,645 Climbing Houston Center
12:28PM 30.1039 -89.8619 88° East 171 197 7,700 1,770 Climbing Houston Center
12:28PM 30.1050 -89.8425 86° East 176 203 8,300 1,645 Climbing Houston Center
12:29PM 30.1067 -89.8044 87° East 177 204 9,400 1,500 Climbing Houston Center
12:30PM 30.1083 -89.7450 88° East 184 212 11,000 1,694 Climbing Houston Center
12:31PM 30.1114 -89.6728 87° East 189 217 12,900 1,645 Climbing Houston Center
12:32PM 30.1278 -89.6153 72° East 195 224 14,400 1,403 Climbing Houston Center
12:33PM 30.1569 -89.5594 59° Northeast 203 234 15,800 1,258 Climbing Houston Center
12:34PM 30.1864 -89.5039 58° Northeast 204 235 17,000 1,113 Climbing Houston Center
12:35PM 30.2092 -89.4456 66° East 202 232 18,100 1,113 Climbing Houston Center
12:36PM 30.2208 -89.3844 78° East 197 227 19,300 1,113 Climbing Houston Center
12:37PM 30.2383 -89.3089 75° East 202 232 20,400 1,016 Climbing Houston Center
12:38PM 30.2542 -89.2414 75° East 217 250 21,400 968 Climbing Houston Center
12:39PM 30.2708 -89.1697 75° East 226 260 22,400 968 Climbing Houston Center
12:40PM 30.2878 -89.0969 75° East 232 267 23,400 968 Climbing Houston Center
12:41PM 30.3050 -89.0239 75° East 236 272 24,400 1,016 Climbing Houston Center
12:42PM 30.3228 -88.9433 76° East 239 275 25,500 1,065 Climbing Houston Center
12:43PM 30.3408 -88.8672 75° East 246 283 26,600 1,065 Climbing Houston Center
12:44PM 30.3594 -88.7900 74° East 249 287 27,700 1,065 Climbing Houston Center
12:45PM 30.3794 -88.6964 76° East 249 287 28,800 968 Climbing Houston Center
12:46PM 30.3975 -88.6175 75° East 254 292 29,700 919 Climbing Houston Center
12:47PM 30.4158 -88.5383 75° East 255 293 30,700 871 Climbing Houston Center
12:48PM 30.4339 -88.4586 75° East 256 295 31,500 677 Climbing Houston Center
12:49PM 30.4528 -88.3772 75° East 262 302 32,100 780 Climbing Houston Center
12:50PM 30.4714 -88.2956 75° East 263 303 33,100 976 Climbing Houston Center
12:51PM 30.4919 -88.1997 76° East 257 296 34,100 871 Climbing Houston Center
12:52PM 30.5106 -88.1222 74° East 252 290 34,900 435 Climbing Houston Center
12:54PM 30.5217 -88.0394 81° East 260 299 35,000 48 Climbing Houston Center
12:55PM 30.5258 -87.9478 87° East 282 325 35,000 242 Level Houston Center
12:56PM 30.5339 -87.8464 85° East 313 360 35,500 829 Climbing Houston Center
12:57PM 30.5581 -87.7331 76° East 304 350 36,700 976 Climbing Houston Center
12:58PM 30.5764 -87.6436 77° East 289 333 37,500 726 Climbing Houston Center
12:59PM 30.5947 -87.5564 76° East 279 321 38,200 581 Climbing Houston Center
01:00PM 30.6083 -87.4697 80° East 276 318 38,700 387 Climbing Houston Center
01:01PM 30.5894 -87.3878 105° East 264 304 39,000 146 Climbing Houston Center
01:02PM 30.5747 -87.2981 101° East 282 325 39,000  Level Houston Center
01:03PM 30.5600 -87.1997 100° East 307 353 39,000  Level Houston Center
01:04PM 30.5397 -87.0747 101° East 330 380 39,000  Level Houston Center
01:05PM 30.5239 -86.9675 100° East 339 390 39,000  Level Houston Center
01:06PM 30.5017 -86.8414 102° East 336 387 39,000  Level Jacksonville Center
01:07PM 30.5136 -86.7286 83° East 341 392 39,000  Level Jacksonville Center
01:08PM 30.5439 -86.6189 72° East 352 405 39,000  Level Jacksonville Center
01:09PM 30.5744 -86.4994 73° East 357 411 39,000  Level Jacksonville Center
01:10PM 30.6069 -86.3850 72° East 363 418 39,000  Level Jacksonville Center
01:11PM 30.6353 -86.2678 74° East 368 423 39,000  Level Jacksonville Center
01:12PM 30.6675 -86.1506 72° East 368 423 39,000  Level Jacksonville Center
01:13PM 30.6850 -86.0353 80° East 374 430 39,000  Level Jacksonville Center
01:14PM 30.7067 -85.9150 78° East 374 430 39,000  Level Jacksonville Center
01:15PM 30.7178 -85.7947 84° East 374 430 39,000 -500 Level Jacksonville Center
01:16PM 30.6975 -85.6781 101° East 358 412 38,000 -1,200 Descending Jacksonville Center
01:17PM 30.6625 -85.5586 109° East 364 419 36,600 -1,450 Descending Jacksonville Center
01:18PM 30.6253 -85.4369 110° East 380 437 35,100 -1,500 Descending Jacksonville Center
01:19PM 30.5900 -85.3178 109° East 386 444 33,600 -1,450 Descending Jacksonville Center
01:20PM 30.5589 -85.1989 107° East 386 444 32,200 -1,450 Descending Jacksonville Center
01:21PM 30.5233 -85.0750 108° East 391 450 30,700 -1,450 Descending Jacksonville Center
01:22PM 30.4878 -84.9561 109° East 391 450 29,300 -1,462 Descending Jacksonville Center
01:23PM 30.4583 -84.8469 107° East 385 443 27,800 -1,350 Descending Jacksonville Center
01:24PM 30.4244 -84.7331 109° East 373 429 26,600 -1,240 Descending Jacksonville Center
01:25PM 30.3944 -84.6289 108° East 359 413 25,300 -1,250 Descending Jacksonville Center
01:26PM 30.3628 -84.5153 108° East 359 413 24,100 -1,200 Descending Jacksonville Center
01:27PM 30.3306 -84.4064 109° East 359 413 22,900 -1,100 Descending Jacksonville Center
01:28PM 30.2983 -84.2953 109° East 359 413 21,900 -1,050 Descending Jacksonville Center
01:29PM 30.2661 -84.1842 109° East 359 413 20,800 -1,000 Descending Jacksonville Center
01:30PM 30.2381 -84.0900 109° East 359 413 19,900 -900 Descending Jacksonville Center
01:31PM 30.2075 -83.9814 108° East 353 406 19,000 -1,000 Descending Jacksonville Center
01:32PM 30.1750 -83.8731 109° East 353 406 17,900 -950 Descending Jacksonville Center
01:33PM 30.1425 -83.7669 109° East 353 406 17,100 -850 Descending Jacksonville Center
01:34PM 30.1117 -83.6608 109° East 348 400 16,200 -1,000 Descending Jacksonville Center
01:35PM 30.0811 -83.5550 108° East 348 400 15,100 -1,000 Descending Jacksonville Center
01:36PM 30.0481 -83.4492 110° East 348 400 14,200 -950 Descending Jacksonville Center
01:37PM 30.0172 -83.3436 109° East 348 400 13,200 -1,050 Descending Jacksonville Center
01:38PM 29.9842 -83.2403 110° East 348 400 12,100 -1,053 Descending Jacksonville Center
01:39PM 29.9447 -83.1058 109° East 341 392 10,900 -1,000 Descending Jacksonville Center
01:40PM 29.9283 -83.0364 105° East 342 394 10,100 -1,215 Descending Jacksonville Center
01:40PM 29.9053 -82.9789 115° Southeast 308 354 9,300 -1,200 Descending Jacksonville Center
01:41PM 29.8950 -82.9428 108° East 327 376 8,900 -885 Descending Jacksonville Center
01:41PM 29.8781 -82.8925 111° Southeast 283 326 8,400 -900 Descending Jacksonville Center
01:42PM 29.8697 -82.8567 105° East 304 350 8,000 -885 Descending Jacksonville Center
01:42PM 29.8511 -82.8039 112° Southeast 282 325 7,500 -900 Descending Jacksonville Center
01:43PM 29.8425 -82.7706 107° East 291 335 7,100 -787 Descending Jacksonville Center
01:43PM 29.8258 -82.7203 111° Southeast 283 326 6,700 -700 Descending Jacksonville Center
01:44PM 29.8175 -82.6867 106° East 286 329 6,400 -885 Descending Jacksonville Center
01:45PM 29.7964 -82.6269 112° Southeast 286 329 5,800 -900 Descending Jacksonville Center
01:45PM 29.7903 -82.6006 105° East 286 329 5,500 -764 Descending Jacksonville Center
01:45PM 29.7733 -82.5600 116° Southeast 282 325 5,100 -1,000 Descending Jacksonville Center
01:46PM 29.7567 -82.5169 114° Southeast 286 329 4,500 -1,377 Descending Jacksonville Center
01:46PM 29.7375 -82.4717 116° Southeast 279 321 3,700 -1,300 Descending Jacksonville Center
01:47PM 29.7269 -82.4381 110° East 275 316 3,200 -1,377 Descending Jacksonville Center
01:47PM 29.7103 -82.3953 114° Southeast 249 287 2,300 -1,000 Descending Jacksonville Center
01:48PM 29.7039 -82.3642 103° East 251 289 2,200 -982 Descending Jacksonville Center
01:48PM 29.6994 -82.3475 107° East 145 167 1,400 -1,300 Descending Jacksonville Center
01:49PM 29.6972 -82.3211 96° East 195 224 900 -787 Descending Jacksonville Center
01:49PM 29.6953 -82.3044 98° East 112 129 600 -667 Descending Jacksonville Center
01:51PM 29.6833 -82.2667 103° East  Level FlightAware Approximate
01:58PM 29.6901 -82.2718 103° East  Level Estimated